Retour au catalogue

BRO-14

ActifScienceSSO
NORAD 60551·PAYLOAD·🇫🇷 France

Lancé Aug 16, 2024 depuis Vandenberg Space Force Base

Loading…

Prochains Passages (prochaines 24 heures)

TLE

FraisSource: Space-Track

Époque: Sep 14, 2026, 11:21 UTC

1 60551U 24149CM  26257.47304258  .00000784  00000-0  74380-4 0  9997
2 60551  97.6803 331.6246 0007390 149.3874 210.7780 14.96334965113349

Suivez BRO-14 en temps réel avec AllMySat

Download on the App Store